Location: Fort Worth, Tx
(32.7431°N, 97.3695°W)
Time: 05:45:01
(UTC-05:00)

Altair - Pass Details

Date: 11 October 2023
Orbit: 1501 x 1682 km, 47.2° (Epoch: 06 December)

Event Time Altitude Azimuth Distance (km) Brightness Sun altitude
Rises 00:03:48 0° 213° (SSW) 4,635 - -49.8°
Reaches altitude 10° 00:06:52 10° 208° (SSW) 3,669 - -50.4°
Maximum altitude 00:15:48 55° 134° (SE) 1,806 - -51.9°
Drops below altitude 10° 00:25:05 10° 59° (ENE) 3,807 - -53.5°
Sets 00:28:19 0° 56° (NE) 4,820 - -54.0°
